SCP
0 0 0 -0 -0 -0 -0 -0 -0 -1 -2 -2 -1 -1 -1 -0 -1 -0 -0 -0 -0 -0 -0 -0 -1 -0 0 0 -0 -0 -0 -0 -0
0 -0 0 0 -0 -0 -0 -0 -0 -1 -2 -3 -2 -1 -0 -0 -0 -0 -0 -0 -0 -0 -0 -0 -1 -1 -0 0 0 0 -0 0 -0
0 0 0 0 0 0 -0 -0 -0 -0 -1 -3 -2 -1 -0 -0 -0 -0 -0 -0 -0 -0 0 -0 -1 -0 -1 -0 0 -0 0 0 0
0 0 -0 0 0 0 0 0 -0 -0 -1 -1 -1 -1 -0 -0 -0 -0 -0 -0 -0 -0 -0 -0 -1 -0 -0 -0 -0 -0 0 -0 0
0 0 0 1 0 1 1 0 -0 -0 -1 -2 -1 -0 0 -0 -0 -0 -0 -0 -0 -0 0 0 -0 -1 -0 -0 -0 -0 -0 -0 -0
0 -0 -0 0 0 0 0 -0 -1 -0 -0 -0 -0 -0 -0 0 0 0 -0 -0 -0 -0 -0 0 -0 -0 -1 -1 -1 -0 -0 -0 -0
0 0 0 0 0 0 2 1 -1 1 0 0 0 0 0 0 1 1 0 0 0 0 -0 -0 -0 -0 -1 -1 -1 -1 -0 -0 -0
1 1 0 0 0 1 0 0 1 2 3 3 1 2 3 4 3 2 2 1 1 0 0 0 -0 -0 -1 -1 -1 -0 -0 -0 -0
0 1 1 2 2 1 1 2 4 6 5 4 3 1 1 2 3 1 1 2 2 1 0 0 0 -0 -0 -1 -0 -0 -0 0 0
0 1 1 1 1 1 1 1 2 2 4 4 3 1 0 0 0 3 1 2 2 2 0 0 -0 0 0 0 0 1 0 0 2
1 1 1 1 0 1 0 1 0 2 2 3 2 1 1 2 0 0 0 0 0 0 0 -0 -0 0 1 1 1 2 1 0 2
1 0 1 1 0 1 2 2 2 1 1 1 1 1 1 1 1 1 2 1 0 0 0 0 0 1 1 1 2 2 2 1 3
-0 -0 0 0 0 1 2 3 2 2 1 1 1 2 1 1 1 3 3 1 1 1 1 1 2 1 1 1 2 2 3 1 6
0 0 0 0 1 2 2 1 2 2 3 3 3 3 3 3 3 2 3 2 2 2 2 2 3 3 3 2 3 3 3 0 4
0 0 0 1 2 0 3 3 3 6 6 5 6 5 4 4 3 2 2 3 3 3 3 3 3 3 5 5 5 4 1 0 0
0 0 0 0 0 2 0 3 2 4 2 4 5 4 5 4 4 4 4 4 4 3 2 2 2 2 2 3 4 3 1 0 0
0 0 0 0 0 0 1 2 3 6 4 0 4 5 4 4 5 5 5 3 2 2 0 1 2 2 2 1 2 1 0 0 0
0 0 0 0 0 0 1 2 3 3 4 7 4 4 3 3 2 2 2 2 1 1 2 1 2 2 2 1 2 3 1 0 0
0 0 0 0 0 0 0 2 3 6 5 6 4 3 3 1 0 0 1 1 1 0 0 0 0 0 1 1 1 0 0 0 0
0 0 0 0 0 1 2 3 2 2 5 8 7 4 4 1 0 0 0 0 0 0 0 0 0 0 0 0 1 0 0 0 0
Wind_Speed_500mb
8 17 61 61 60 57 63 60 66 64 67 65 62 61 62 52 52 53 45 34 22 31 28 34 28 21 29 32 35 42 32 30 30
20 29 50 58 55 55 61 60 65 65 67 71 60 58 58 56 50 50 47 38 31 34 25 26 36 27 26 28 38 32 36 30 26
14 21 29 51 51 55 61 61 63 68 70 71 64 54 56 58 56 51 48 40 41 38 30 26 29 33 28 25 38 36 36 29 30
12 8 20 63 69 61 56 56 59 65 69 68 66 58 51 48 49 48 43 51 47 47 39 33 36 33 32 30 40 46 45 40 34
11 8 14 19 21 31 49 57 50 53 64 63 50 47 48 51 45 42 42 43 49 45 48 51 49 48 42 37 40 43 46 45 48
7 3 10 10 25 16 24 17 54 56 61 60 49 41 41 43 41 40 46 45 45 49 45 48 56 54 50 45 42 44 48 47 48
8 2 9 5 6 19 13 15 53 42 50 49 47 42 39 40 43 38 38 43 46 48 52 48 50 55 53 53 51 49 49 47 47
4 7 13 6 4 30 35 49 34 36 33 33 36 44 35 25 24 29 32 37 43 49 49 58 58 56 58 57 57 58 58 55 54
12 15 10 3 12 14 22 21 20 32 38 41 44 56 40 10 14 24 39 35 41 40 48 55 60 64 64 66 64 61 60 60 61
11 2 14 10 12 24 25 27 29 40 53 54 59 61 35 35 59 72 53 48 44 41 50 56 58 65 66 71 71 71 64 65 70
31 21 3 6 22 31 33 30 25 41 46 58 51 35 44 61 59 41 46 44 39 36 43 63 63 69 70 73 74 74 73 71 74
9 17 13 15 13 8 33 36 18 20 38 53 32 26 34 33 36 38 29 22 32 30 56 54 58 62 65 70 75 73 74 74 75
33 48 24 27 33 24 16 25 33 37 34 32 29 28 27 28 28 25 17 12 17 23 24 27 36 47 55 62 67 66 70 73 75
30 33 30 37 35 33 38 38 32 31 34 39 37 31 32 32 30 31 30 21 17 17 20 23 31 44 50 55 58 65 69 66 72
14 32 40 31 29 46 19 38 46 32 34 27 33 35 33 32 33 30 22 27 29 25 30 34 37 36 44 50 52 56 63 58 60
33 31 32 42 45 44 44 37 24 28 27 25 34 35 33 33 30 28 28 30 33 32 28 26 34 36 36 41 48 56 62 55 55
39 40 45 47 49 40 37 17 30 58 77 60 73 48 42 42 40 37 36 33 30 34 33 38 37 45 47 43 44 44 45 48 41
46 47 44 46 52 56 41 39 22 36 43 54 60 57 47 41 35 30 36 41 43 41 46 49 50 44 46 39 40 42 37 35 32
45 45 46 48 47 52 62 60 49 28 32 36 44 41 40 43 37 40 35 33 42 47 47 51 59 63 58 53 59 56 53 50 38
48 50 52 53 53 56 52 55 58 61 50 49 36 41 44 40 34 31 32 37 43 49 50 50 61 55 63 53 49 48 47 50 48
Wind_Direction_500mb
347 271 183 183 183 186 188 197 196 198 207 218 223 219 222 226 221 223 233 234 231 222 255 204 229 235 214 222 208 212 218 213 208
4 303 181 176 186 185 188 194 199 200 206 216 225 231 225 231 234 229 232 231 220 229 242 241 223 229 223 222 216 213 221 215 199
24 333 187 170 188 186 190 193 201 202 205 217 223 231 235 233 236 239 229 223 218 225 209 237 217 216 223 238 209 211 221 212 219
58 343 205 179 182 186 190 193 198 199 200 213 218 226 230 231 233 237 236 219 224 226 221 218 241 218 228 239 217 218 220 209 219
80 26 330 322 120 162 179 188 195 201 200 209 214 215 216 224 232 227 239 231 220 230 233 222 228 236 236 235 225 222 225 224 217
83 305 254 298 21 62 118 298 302 200 204 202 206 209 213 213 232 225 224 242 222 230 238 230 232 236 237 234 231 227 230 236 233
89 175 198 203 136 98 179 210 247 189 196 200 200 203 207 212 215 227 226 227 244 229 237 242 239 243 243 239 239 237 235 237 238
158 192 212 185 209 129 154 187 189 200 195 200 201 197 181 165 195 225 236 230 235 248 240 240 245 247 247 246 242 240 240 241 242
201 193 247 179 127 152 165 172 171 183 185 197 185 171 163 136 156 249 235 237 231 240 247 245 245 249 248 248 247 244 236 241 244
259 195 178 200 180 163 167 172 179 191 186 178 177 185 200 240 248 246 236 225 229 239 250 249 247 247 248 251 252 252 242 236 244
188 177 241 236 227 170 169 175 180 192 201 193 186 241 242 234 235 239 240 239 251 257 280 256 252 251 250 251 251 252 253 242 239
349 105 212 239 233 144 150 152 174 159 198 209 214 202 212 226 225 225 228 245 256 219 258 263 260 259 255 253 255 255 253 250 242
7 326 229 232 215 188 169 171 178 171 169 173 173 176 173 174 173 175 176 192 210 236 268 268 265 260 256 257 258 258 257 253 249
169 287 333 277 215 193 205 196 196 198 195 181 176 183 178 182 189 192 194 210 229 253 276 286 274 277 273 262 255 256 257 255 252
317 306 305 291 298 278 219 206 181 196 207 205 198 194 201 207 206 212 203 226 240 259 282 287 286 283 284 276 269 261 260 260 260
315 313 302 297 295 305 309 253 271 223 267 197 229 216 213 227 229 238 248 250 268 277 285 271 284 280 277 284 276 271 268 269 256
308 304 302 299 302 299 291 262 235 214 226 211 237 232 229 230 231 238 250 263 265 270 270 261 263 282 291 293 290 280 273 267 248
309 308 304 300 298 303 290 270 269 201 202 210 225 236 236 234 236 241 252 259 265 255 259 258 262 267 273 279 277 277 271 278 271
307 309 310 308 308 302 293 280 268 273 242 230 232 233 225 229 237 250 246 255 267 265 270 276 278 268 260 275 277 277 273 270 277
303 306 306 306 304 295 300 271 265 261 266 241 228 233 223 235 237 249 253 262 269 273 273 276 275 272 259 264 276 278 277 273 273
Wind_Speed_850mb
8 17 61 61 60 57 63 60 66 64 67 65 62 61 62 52 52 53 45 34 22 31 28 34 28 21 29 32 35 42 32 30 30
20 29 50 58 55 55 61 60 65 65 67 71 60 58 58 56 50 50 47 38 31 34 25 26 36 27 26 28 38 32 36 30 26
14 21 29 51 51 55 61 61 63 68 70 71 64 54 56 58 56 51 48 40 41 38 30 26 29 33 28 25 38 36 36 29 30
12 8 20 63 69 61 56 56 59 65 69 68 66 58 51 48 49 48 43 51 47 47 39 33 36 33 32 30 40 46 45 40 34
11 8 14 19 21 31 49 57 50 53 64 63 50 47 48 51 45 42 42 43 49 45 48 51 49 48 42 37 40 43 46 45 48
7 3 10 10 25 16 24 17 54 56 61 60 49 41 41 43 41 40 46 45 45 49 45 48 56 54 50 45 42 44 48 47 48
8 2 9 5 6 19 13 15 53 42 50 49 47 42 39 40 43 38 38 43 46 48 52 48 50 55 53 53 51 49 49 47 47
4 7 13 6 4 30 35 49 34 36 33 33 36 44 35 25 24 29 32 37 43 49 49 58 58 56 58 57 57 58 58 55 54
12 15 10 3 12 14 22 21 20 32 38 41 44 56 40 10 14 24 39 35 41 40 48 55 60 64 64 66 64 61 60 60 61
11 2 14 10 12 24 25 27 29 40 53 54 59 61 35 35 59 72 53 48 44 41 50 56 58 65 66 71 71 71 64 65 70
31 21 3 6 22 31 33 30 25 41 46 58 51 35 44 61 59 41 46 44 39 36 43 63 63 69 70 73 74 74 73 71 74
9 17 13 15 13 8 33 36 18 20 38 53 32 26 34 33 36 38 29 22 32 30 56 54 58 62 65 70 75 73 74 74 75
33 48 24 27 33 24 16 25 33 37 34 32 29 28 27 28 28 25 17 12 17 23 24 27 36 47 55 62 67 66 70 73 75
30 33 30 37 35 33 38 38 32 31 34 39 37 31 32 32 30 31 30 21 17 17 20 23 31 44 50 55 58 65 69 66 72
14 32 40 31 29 46 19 38 46 32 34 27 33 35 33 32 33 30 22 27 29 25 30 34 37 36 44 50 52 56 63 58 60
33 31 32 42 45 44 44 37 24 28 27 25 34 35 33 33 30 28 28 30 33 32 28 26 34 36 36 41 48 56 62 55 55
39 40 45 47 49 40 37 17 30 58 77 60 73 48 42 42 40 37 36 33 30 34 33 38 37 45 47 43 44 44 45 48 41
46 47 44 46 52 56 41 39 22 36 43 54 60 57 47 41 35 30 36 41 43 41 46 49 50 44 46 39 40 42 37 35 32
45 45 46 48 47 52 62 60 49 28 32 36 44 41 40 43 37 40 35 33 42 47 47 51 59 63 58 53 59 56 53 50 38
48 50 52 53 53 56 52 55 58 61 50 49 36 41 44 40 34 31 32 37 43 49 50 50 61 55 63 53 49 48 47 50 48
Wind_Direction_850mb
347 271 183 183 183 186 188 197 196 198 207 218 223 219 222 226 221 223 233 234 231 222 255 204 229 235 214 222 208 212 218 213 208
4 303 181 176 186 185 188 194 199 200 206 216 225 231 225 231 234 229 232 231 220 229 242 241 223 229 223 222 216 213 221 215 199
24 333 187 170 188 186 190 193 201 202 205 217 223 231 235 233 236 239 229 223 218 225 209 237 217 216 223 238 209 211 221 212 219
58 343 205 179 182 186 190 193 198 199 200 213 218 226 230 231 233 237 236 219 224 226 221 218 241 218 228 239 217 218 220 209 219
80 26 330 322 120 162 179 188 195 201 200 209 214 215 216 224 232 227 239 231 220 230 233 222 228 236 236 235 225 222 225 224 217
83 305 254 298 21 62 118 298 302 200 204 202 206 209 213 213 232 225 224 242 222 230 238 230 232 236 237 234 231 227 230 236 233
89 175 198 203 136 98 179 210 247 189 196 200 200 203 207 212 215 227 226 227 244 229 237 242 239 243 243 239 239 237 235 237 238
158 192 212 185 209 129 154 187 189 200 195 200 201 197 181 165 195 225 236 230 235 248 240 240 245 247 247 246 242 240 240 241 242
201 193 247 179 127 152 165 172 171 183 185 197 185 171 163 136 156 249 235 237 231 240 247 245 245 249 248 248 247 244 236 241 244
259 195 178 200 180 163 167 172 179 191 186 178 177 185 200 240 248 246 236 225 229 239 250 249 247 247 248 251 252 252 242 236 244
188 177 241 236 227 170 169 175 180 192 201 193 186 241 242 234 235 239 240 239 251 257 280 256 252 251 250 251 251 252 253 242 239
349 105 212 239 233 144 150 152 174 159 198 209 214 202 212 226 225 225 228 245 256 219 258 263 260 259 255 253 255 255 253 250 242
7 326 229 232 215 188 169 171 178 171 169 173 173 176 173 174 173 175 176 192 210 236 268 268 265 260 256 257 258 258 257 253 249
169 287 333 277 215 193 205 196 196 198 195 181 176 183 178 182 189 192 194 210 229 253 276 286 274 277 273 262 255 256 257 255 252
317 306 305 291 298 278 219 206 181 196 207 205 198 194 201 207 206 212 203 226 240 259 282 287 286 283 284 276 269 261 260 260 260
315 313 302 297 295 305 309 253 271 223 267 197 229 216 213 227 229 238 248 250 268 277 285 271 284 280 277 284 276 271 268 269 256
308 304 302 299 302 299 291 262 235 214 226 211 237 232 229 230 231 238 250 263 265 270 270 261 263 282 291 293 290 280 273 267 248
309 308 304 300 298 303 290 270 269 201 202 210 225 236 236 234 236 241 252 259 265 255 259 258 262 267 273 279 277 277 271 278 271
307 309 310 308 308 302 293 280 268 273 242 230 232 233 225 229 237 250 246 255 267 265 270 276 278 268 260 275 277 277 273 270 277
303 306 306 306 304 295 300 271 265 261 266 241 228 233 223 235 237 249 253 262 269 273 273 276 275 272 259 264 276 278 277 273 273